Regional Weather Roundup
Issued by NWS

Home | Current Version | Previous Version | Graphics & Text | Print | Product List | Glossary Off
Versions: 1 2 3 4 5 6 7 8 9 10 11 12 13 14 15 16 17 18 19 20 21 22 23 24 25 26 27 28 29 30 31 32 33 34 35 36 37 38 39 40 41 42 43 44 45 46 47 48 49 50

000
ASUS43 KMKX 011400
RWRWI

WISCONSIN REGIONAL WEATHER ROUNDUP
NATIONAL WEATHER SERVICE MILWAUKEE/SULLIVAN WI
900 AM CDT WED OCT 01 2014

NOTE: "FAIR" INDICATES FEW OR NO CLOUDS BELOW 12,000 FEET WITH NO
SIGNIFICANT WEATHER AND/OR OBSTRUCTIONS TO VISIBILITY.

WIZ001-002-006>008-014>016-023>028-011500-
NORTHWEST WISCONSIN

CITY           SKY/WX    TMP DP  RH WIND       PRES   REMARKS
SUPERIOR ARPT  DRIZZLE   47  47  97 E3        29.88S
ASHLAND        CLOUDY    49  45  86 S3        29.92S
HAYWARD        CLOUDY    48  44  86 S10       29.90F
SIREN          CLOUDY    48  46  93 S8        29.87F
CUMBERLAND     RAIN      45  43  93 SE9       29.90R
RICE LAKE      RAIN      47  44  91 SE14      29.92R
CHETEK         DRIZZLE   46  45  95 E9G16     29.91F
LADYSMITH      CLOUDY    48  44  86 SE10      29.95F
EAU CLAIRE     NOT AVBL
MENOMONIE      LGT RAIN  47  46  96 SE9       29.91S
NEW RICHMOND   RAIN      47  47  97 SE6       29.88S
OSCEOLA        LGT RAIN  49  48  99 SE9       29.90S
$$

WIZ003>005-009-010-017-018-011500-
NORTH CENTRAL WISCONSIN

CITY           SKY/WX    TMP DP  RH WIND       PRES   REMARKS
MANITOWISH WTR CLOUDY    44  44  99 S8        29.96S
ARBOR VITAE    CLOUDY    46  43  90 S12       29.97S
WOODRUFF       CLOUDY    46  43  90 S12       29.97S
RHINELANDER    CLOUDY    45  43  93 S8        30.00R
EAGLE RIVER    CLOUDY    45  45  98 S6        29.98R
LAND O LAKES   CLOUDY    46  45  93 S6        29.98R
PHILLIPS       CLOUDY    46  43  90 S10       29.95S
TOMAHAWK       CLOUDY    45  44  95 SE5       29.99R FOG
MEDFORD        CLOUDY    46  44  95 SE9G16    29.96S
MERRILL        CLOUDY    47  46  96 S6        29.99S
$$

WIZ029-030-035-036-043>047-011500-
CENTRAL WISCONSIN

CITY           SKY/WX    TMP DP  RH WIND       PRES   REMARKS
WAUSAU         CLOUDY    48  46  93 SE9       29.98S
MOSINEE        CLOUDY    48  48 100 SE6       29.99F
MARSHFIELD     CLOUDY    50  46  86 S16G25    29.97R
STEVENS POINT  CLOUDY    47  46  95 SE3       29.99F
WAUPACA        CLOUDY    52  50  95 E5        30.01S
WAUTOMA        NOT AVBL
WISC RAPIDS    CLOUDY    51  48  89 SE7       30.00R
CAMP DOUGLAS   NOT AVBL
$$

WIZ011>013-019>022-031-037>040-048>050-011500-
NORTHEAST WISCONSIN

CITY           SKY/WX    TMP DP  RH WIND       PRES   REMARKS
ANTIGO         CLOUDY    46  45  99 S10       30.01S FOG
SHAWANO        CLOUDY    51  49  94 E3        30.03S FOG
OCONTO         CLOUDY    52  52 100 SE3       30.03S
STURGEON BAY   NOT AVBL
GREEN BAY      CLOUDY    52  51  97 E7        30.02S FOG
MANITOWOC      NOT AVBL
APPLETON       CLOUDY    52  50  93 VRB3      30.01F FOG
CLINTONVILLE   CLOUDY    48  48 100 E3        30.01S FOG
OSHKOSH        CLOUDY    54  51  90 SE6       30.01R
$$

WIZ032>034-041-042-053>061-011500-
SOUTHWEST WISCONSIN

CITY           SKY/WX    TMP DP  RH WIND       PRES   REMARKS
LA CROSSE      CLOUDY    53  47  79 SE7       29.93S
SPARTA         CLOUDY    50  45  81 E5        29.95S
VIROQUA        CLOUDY    50  49  96 SE8G16    29.93S
BOSCOBEL       CLOUDY    55  47  74 VRB5      29.96R
PRAIRIE DU CHI CLOUDY    53  46  78 SE6       29.93R
PLATTEVILLE    PTSUNNY   52  48  84 SE13      29.96R
$$

WIZ056-057-062-063-064-067-068-011500-
SOUTH CENTRAL WISCONSIN

CITY           SKY/WX    TMP DP  RH WIND       PRES   REMARKS
REEDSBURG      CLOUDY    51  47  87 SE7       29.97S
BARABOO/DELLS  CLOUDY    51  46  83 SE8G16    29.98R
LONE ROCK      CLOUDY    57  47  69 SE12      29.97R
MINERAL POINT  PTSUNNY   54  46  76 SE14G22   29.96S
MADISON        PTSUNNY   55  47  74 SE15      29.99S
MIDDLETON      PTSUNNY   55  47  75 SE12      29.99S
WATERTOWN      CLOUDY    53  49  84 S9        30.01R
MONROE         PTSUNNY   52  46  82 SE10G16   29.98R
JANESVILLE     SUNNY     55  46  71 SE12      29.99S
$$

WIZ051-052-058>065-066-070>072-011500-
SOUTHEAST WISCONSIN

CITY           SKY/WX    TMP DP  RH WIND       PRES   REMARKS
MILWAUKEE      PTSUNNY   57  49  74 S7        30.02R
WAUKESHA       PTSUNNY   54  48  82 SE7       30.03R
MILWAUKEE/TIMM CLOUDY    55  46  71 S6        30.02S
RACINE         CLOUDY    58  48  69 S9        30.04R
BURLINGTON     SUNNY     55  47  74 SE7       30.01R
KENOSHA        PTSUNNY   58  48  69 SE10      30.02R
FOND DU LAC    CLOUDY    54  50  86 S6        30.01R
SHEBOYGAN      CLOUDY    56  50  80 SE5       30.02
WEST BEND      CLOUDY    54  48  82 SE3       30.01S
JUNEAU         CLOUDY    53  48  84 SE8       30.02R
$$

LSZ147-162-011500-
LAKE SUPERIOR

STATION/POSITION TIME  TEMP    WIND        PRES    WAVE
                       AIR SEA DIR/SP/G            HT/PER
                 (UTC) (F)     (DEG/KT/KT) (MB)    (FT/S)
W MID LAKE BUOY  1250   49 50  170/ 10/ 14 1014.0R   2/ 4
DEVILS ISLAND    1300   50     150/  7/ 10 1013.3F
SAXON HARBOR     1300   46        CALM     1012.5F
$$

LMZ867-665-643>646-011500-
LAKE MICHIGAN

STATION/POSITION TIME  TEMP    WIND        PRES    WAVE
                       AIR SEA DIR/SP/G            HT/PER
                 (UTC) (F)     (DEG/KT/KT) (MB)    (FT/S)
CHAMBERS ISLAND  1300   53     160/  3/  6 1017.3S
S GREEN BAY BUOY 1200   53                 1017.5R
N MID LAKE BUOY  1250   54 58  180/ 10/ 12 1017.8R   1/ 3
NORTHPORT PIER   1300   54     180/  4/ 12 1017.3S
SISTER BAY       1342          190/ 10/ 12   N/A
KEWAUNEE LAKESHO 1300   54     140/ 10/ 12 1016.0R
SHEBOYGAN LAKESH 1300   56 54  140/ 12/ 15 1016.9R
PORT WASHINGTON  1300   58     150/  9/ 11 1016.6S
ATWATER BUOY     1300   58     180/  8/ 10 1017.2R
MILWAUKEE LAKESH 1300   57     180/  6/  7   N/A
S MID LAKE BUOY  1250   56 62  150/ 10/ 12 1017.0R   2/ 4
KENOSHA   LAKESH 1300   58     170/ 14/ 16 1016.3R
$$

TC  - TEMPERATURE IN CELSIUS
VSB - VISIBILITY IN STATUTE MILES
WCI - WIND CHILL INDEX
HX  - HEAT INDEX




USA.gov is the U.S. government's official web portal to all federal, state and local government web resources and services.